Weather History for Kearney, NE

Change the Weather History Date:

Wednesday, October 24, 2012

  Actual Average Record
Temperature  
Mean Temperature 46 °F 48 °F  
Max Temperature 52 °F 61 °F 85 °F (1940)
Min Temperature 39 °F 35 °F 17 °F (1981)
Degree Days  
Heating Degree Days 19 17  
Month to date heating degree days 312  
Since 1 July heating degree days 461  
Cooling Degree Days 0 0  
Month to date cooling degree days 4  
Year to date cooling degree days 869  
Moisture  
Dew Point 43 °F    
Average Humidity 80    
Maximum Humidity 100    
Minimum Humidity 60    
Precipitation  
Precipitation 0.00 in - 0.27 in (1990)
Sea Level Pressure  
Sea Level Pressure 29.80 in    
Wind  
Wind Speed 16 mph (NNE)    
Max Wind Speed 27 mph    
Max Gust Speed 31 mph    
Visibility 5 miles    
Events      
T = Trace of Precipitation, MM = Missing Value Source: NWS Daily Summary

Daily Weather History Graph

Daily Weather History Graph

Search for Another Location

Airport:

Trip Planner

Search our weather history database for the weather conditions in past years. The results will help you decide how hot, cold, wet, or windy it might be!

Date:

Astronomy

Oct. 24, 2012 Rise Set
Actual Time 7:57 AM CDT 6:41 PM CDT
Civil Twilight 7:29 AM CDT 7:09 PM CDT
Nautical Twilight 6:57 AM CDT 7:41 PM CDT
Astronomical Twilight 6:25 AM CDT 8:13 PM CDT
Moon 4:00 PM CDT (10/24) 2:53 AM CDT (10/24)
Length of Visible Light 11h 40m
Length of Day
10h 44m
Waxing Gibbous, 76% of the Moon is Illuminated
Oct 24
Waxing Gibbous
Oct 29
Full
Nov 6
Last Quarter
Nov 13
New
Nov 20
First Quarter

Hourly Weather History & Observations

Time (CDT) Temp. Windchill Dew Point Humidity Pressure Visibility Wind Dir Wind Speed Gust Speed Precip Events Conditions
12:15 AM 44.6 °F 41.4 °F 42.8 °F 93% 29.76 in 0.5 mi NNE 5.8 mph - N/A   Unknown
12:35 AM 44.6 °F 39.2 °F 42.8 °F 93% 29.75 in 0.2 mi NNE 10.4 mph - N/A   Unknown
12:55 AM 46.4 °F 41.9 °F 44.6 °F 93% 29.76 in 2.0 mi NNE 9.2 mph - N/A   Clear
1:15 AM 46.4 °F 41.1 °F 44.6 °F 93% 29.76 in 1.5 mi North 11.5 mph - N/A   Scattered Clouds
1:35 AM 46.4 °F 40.7 °F 44.6 °F 93% 29.76 in 0.5 mi NNW 12.7 mph - N/A   Overcast
1:55 AM 46.4 °F 41.9 °F 44.6 °F 93% 29.77 in 0.2 mi North 9.2 mph - N/A   Overcast
2:15 AM 48.2 °F - 46.4 °F 93% 29.79 in 0.2 mi NNE 10.4 mph - N/A   Overcast
2:35 AM 48.2 °F - 46.4 °F 93% 29.79 in 0.2 mi NE 15.0 mph - N/A   Overcast
2:55 AM 48.2 °F - 48.2 °F 100% 29.79 in 0.2 mi NE 11.5 mph - N/A   Overcast
3:15 AM 48.2 °F - 48.2 °F 100% 29.78 in 0.2 mi NE 11.5 mph - N/A   Overcast
3:35 AM 48.2 °F - 48.2 °F 100% 29.79 in 0.5 mi NE 11.5 mph - N/A   Overcast
3:55 AM 48.2 °F - 48.2 °F 100% 29.78 in 1.8 mi NNE 11.5 mph - N/A   Overcast
4:15 AM 48.2 °F - 46.4 °F 93% 29.78 in 5.0 mi NNE 12.7 mph - N/A   Overcast
4:35 AM 48.2 °F - 46.4 °F 93% 29.78 in 3.0 mi North 12.7 mph - N/A   Overcast
4:55 AM 48.2 °F - 46.4 °F 93% 29.78 in 3.0 mi North 15.0 mph - N/A   Overcast
5:15 AM 48.2 °F - 46.4 °F 93% 29.78 in 3.0 mi North 16.1 mph 24.2 mph N/A   Overcast
5:35 AM 48.2 °F - 46.4 °F 93% 29.77 in 1.0 mi NNE 16.1 mph 21.9 mph N/A   Overcast
5:55 AM 48.2 °F - 46.4 °F 93% 29.77 in 0.8 mi NNE 19.6 mph - N/A   Overcast
6:15 AM 48.2 °F - 46.4 °F 93% 29.78 in 1.0 mi NNE 17.3 mph 25.3 mph N/A   Overcast
6:35 AM 48.2 °F - 46.4 °F 93% 29.80 in 0.8 mi North 16.1 mph - N/A   Overcast
6:55 AM 48.2 °F - 46.4 °F 93% 29.81 in 1.2 mi North 15.0 mph - N/A   Overcast
7:15 AM 48.2 °F - 46.4 °F 93% 29.81 in 1.8 mi North 16.1 mph - N/A   Overcast
7:35 AM 46.4 °F 39.0 °F 46.4 °F 100% 29.82 in 2.0 mi North 19.6 mph 24.2 mph N/A   Overcast
7:55 AM 46.4 °F 39.2 °F 44.6 °F 93% 29.83 in 2.5 mi North 18.4 mph 24.2 mph N/A   Overcast
8:15 AM 46.4 °F 39.5 °F 44.6 °F 93% 29.82 in 1.8 mi North 17.3 mph - N/A   Overcast
8:35 AM 46.4 °F 39.5 °F 46.4 °F 100% 29.82 in 2.5 mi North 17.3 mph - N/A   Overcast
8:55 AM 48.2 °F - 46.4 °F 93% 29.84 in 3.0 mi North 15.0 mph 23.0 mph N/A   Overcast
9:15 AM 48.2 °F - 46.4 °F 93% 29.84 in 4.0 mi NNE 16.1 mph - N/A   Overcast
9:35 AM 48.2 °F - 46.4 °F 93% 29.84 in 3.0 mi North 17.3 mph 23.0 mph N/A   Overcast
9:55 AM 48.2 °F - 46.4 °F 93% 29.85 in 3.0 mi NNE 13.8 mph - N/A   Overcast
10:15 AM 48.2 °F - 46.4 °F 93% 29.84 in 4.0 mi NNE 15.0 mph - N/A   Overcast
10:35 AM 48.2 °F - 46.4 °F 93% 29.84 in 3.0 mi North 18.4 mph - N/A   Overcast
10:55 AM 48.2 °F - 46.4 °F 93% 29.84 in 3.0 mi North 18.4 mph 23.0 mph N/A   Overcast
11:15 AM 48.2 °F - 44.6 °F 87% 29.85 in 4.0 mi North 20.7 mph 25.3 mph N/A   Overcast
11:35 AM 46.4 °F 39.8 °F 44.6 °F 93% 29.85 in 2.5 mi North 16.1 mph - N/A   Overcast
11:55 AM 46.4 °F 40.1 °F 44.6 °F 93% 29.85 in 2.0 mi North 15.0 mph 18.4 mph N/A   Overcast
12:15 PM 48.2 °F - 44.6 °F 87% 29.83 in 1.5 mi North 17.3 mph - N/A   Overcast
12:35 PM 48.2 °F - 46.4 °F 93% 29.83 in 1.8 mi North 18.4 mph - N/A   Overcast
12:55 PM 48.2 °F - 46.4 °F 93% 29.82 in 2.5 mi North 18.4 mph 23.0 mph N/A   Overcast
1:15 PM 48.2 °F - 46.4 °F 93% 29.81 in 3.0 mi North 17.3 mph 21.9 mph N/A   Overcast
1:35 PM 48.2 °F - 46.4 °F 93% 29.80 in 3.0 mi North 21.9 mph - N/A   Overcast
1:55 PM 50.0 °F - 46.4 °F 87% 29.80 in 7.0 mi North 17.3 mph - N/A   Overcast
2:15 PM 50.0 °F - 46.4 °F 87% 29.81 in 8.0 mi North 15.0 mph - N/A   Overcast
2:35 PM 51.8 °F - 46.4 °F 82% 29.80 in 9.0 mi North 16.1 mph - N/A   Overcast
2:55 PM 51.8 °F - 44.6 °F 76% 29.79 in 8.0 mi NNE 13.8 mph - N/A   Overcast
3:15 PM 51.8 °F - 44.6 °F 76% 29.79 in 5.0 mi NNE 12.7 mph - N/A   Overcast
3:35 PM 51.8 °F - 44.6 °F 76% 29.79 in 8.0 mi NNE 12.7 mph - N/A   Overcast
3:55 PM 51.8 °F - 44.6 °F 76% 29.79 in 9.0 mi NNE 17.3 mph - N/A   Overcast
4:15 PM 50.0 °F - 44.6 °F 82% 29.79 in 6.0 mi NNE 13.8 mph - N/A   Overcast
4:35 PM 50.0 °F - 44.6 °F 82% 29.79 in 4.0 mi NE 12.7 mph - N/A   Overcast
4:55 PM 50.0 °F - 44.6 °F 82% 29.79 in 7.0 mi NNE 15.0 mph - N/A   Overcast
5:15 PM 50.0 °F - 44.6 °F 82% 29.78 in 9.0 mi NNE 15.0 mph - N/A   Overcast
5:35 PM 50.0 °F - 42.8 °F 76% 29.79 in 10.0 mi North 15.0 mph - N/A   Overcast
5:55 PM 50.0 °F - 42.8 °F 76% 29.80 in 10.0 mi NNE 11.5 mph - N/A   Overcast
6:15 PM 50.0 °F - 42.8 °F 76% 29.79 in 10.0 mi NNE 13.8 mph - N/A   Overcast
6:35 PM 50.0 °F - 42.8 °F 76% 29.79 in 10.0 mi NNE 11.5 mph - N/A   Overcast
6:55 PM 50.0 °F - 41.0 °F 71% 29.77 in 10.0 mi NE 12.7 mph - N/A   Overcast
7:15 PM 50.0 °F - 41.0 °F 71% 29.79 in 10.0 mi NNE 13.8 mph - N/A   Overcast
7:35 PM 50.0 °F - 39.2 °F 66% 29.78 in 10.0 mi NNE 18.4 mph - N/A   Overcast
7:55 PM 50.0 °F - 37.4 °F 62% 29.82 in 10.0 mi NNE 17.3 mph 25.3 mph N/A   Overcast
8:15 PM 50.0 °F - 37.4 °F 62% 29.82 in 10.0 mi NNE 19.6 mph 24.2 mph N/A   Overcast
8:35 PM 48.2 °F - 37.4 °F 66% 29.81 in 10.0 mi NNE 18.4 mph - N/A   Overcast
8:55 PM 48.2 °F - 37.4 °F 66% 29.82 in 10.0 mi North 19.6 mph 26.5 mph N/A   Overcast
9:15 PM 48.2 °F - 37.4 °F 66% 29.82 in 10.0 mi NNE 19.6 mph 26.5 mph N/A   Overcast
9:35 PM 48.2 °F - 35.6 °F 62% 29.82 in 10.0 mi North 19.6 mph 27.6 mph N/A   Overcast
9:55 PM 46.4 °F 37.7 °F 33.8 °F 62% 29.81 in 10.0 mi North 26.5 mph 31.1 mph N/A   Overcast
10:15 PM 46.4 °F 39.0 °F 33.8 °F 62% 29.79 in 10.0 mi NNE 19.6 mph - N/A   Overcast
10:35 PM 46.4 °F 37.9 °F 33.8 °F 62% 29.82 in 10.0 mi NNE 25.3 mph 31.1 mph N/A   Overcast
10:55 PM 44.6 °F 35.9 °F 33.8 °F 66% 29.79 in 10.0 mi NNE 23.0 mph - N/A   Overcast
11:15 PM 44.6 °F 34.9 °F 32.0 °F 61% 29.80 in 10.0 mi North 28.8 mph 34.5 mph N/A   Overcast
11:35 PM 44.6 °F 35.7 °F 30.2 °F 57% 29.83 in 10.0 mi North 24.2 mph 29.9 mph N/A   Overcast
11:55 PM 42.8 °F 33.5 °F 30.2 °F 61% 29.84 in 10.0 mi North 23.0 mph 31.1 mph N/A   Overcast